User: anonymous   Login
Location: Aalen
(48.8330°N, 10.1000°E)
Time: 22:00:02
(UTC+01:00)
Language:

COSMOS 2251 DEB - Orbit

View from above orbital plane
View from above orbital plane
View from above satellite
View from above satellite

Ground track
Ground track

The orbit data is extracted from the following two-line orbital elements,

1 34122U 93036KT  22024.45011934  .00000840  00000-0  22872-3 0  9996
2 34122  74.0435 273.5930 0114930 170.3936   3.6559 14.45180948680885
Epoch (UTC): 24 January 2022 10:48:10
Eccentricity: 0.0114930
inclination: 74.0435°
perigee height: 659 km
apogee height: 823 km
right ascension of ascending node: 273.5930°
argument of perigee: 170.3936°
revolutions per day: 14.45180948
mean anomaly at epoch: 3.6559°
orbit number at epoch: 68088

The dashed part of the orbit path shows where the satellite is in the earth's shadow,  

DLR